Torna al catalogo

HAWK-8C

AttivoScienzaVLEO
NORAD 59449·PAYLOAD·🇺🇸 United States

Lanciato Apr 7, 2024 da Cape Canaveral Space Force Station

Loading…

Prossimi Passaggi (prossime 24 ore)

TLE

AggiornatoSource: Space-Track

Epoca: Sep 14, 2026, 11:08 UTC

1 59449U 24066H   26257.46415750  .00002325  00000-0  20563-3 0  9994
2 59449  45.6066 176.0153 0002246 204.7371 155.3403 14.99416897133221

Traccia HAWK-8C in tempo reale con AllMySat

Download on the App Store